W5CGC Weather Reports


Display with metric or nautical units.
time (UTC)temp
F
wind
direction
speed
MPH
gust
MPH
rain 1hr
in
rain 24hr
in
rain mn
in
humidity
%
barometer
mb
20260906104539 76 0 0.0 0.0 0.00 0.00 0.00 67 1012.7
20260906103038 77 0 0.0 0.0 0.00 0.00 0.00 67 1012.7
20260906101546 77 0 0.0 0.0 0.00 0.00 0.00 65 1012.8
20260906100041 78 0 0.0 0.0 0.00 0.00 0.00 64 1012.5
20260906094542 78 0 0.0 0.0 0.00 0.00 0.00 63 1012.3
20260906093041 79 0 0.0 0.0 0.00 0.00 0.00 62 1012.2
20260906091544 79 0 0.0 0.0 0.00 0.00 0.00 61 1012.1
20260906090043 80 0 0.0 0.0 0.00 0.00 0.00 59 1012.2
20260906084548 81 0 0.0 0.0 0.00 0.00 0.00 59 1012.0
20260906083041 81 0 0.0 1.0 0.00 0.00 0.00 58 1012.1
20260906081543 81 0 0.0 3.0 0.00 0.00 0.00 58 1012.1
20260906080042 81 0 0.0 2.0 0.00 0.00 0.00 59 1012.1
20260906074540 81 0 0.0 1.0 0.00 0.00 0.00 60 1012.2
20260906073043 80 134 0.0 1.0 0.00 0.00 0.00 61 1012.3
20260906071557 79 0 0.0 0.0 0.00 0.00 0.00 61 1012.3
20260906070039 79 0 0.0 0.0 0.00 0.00 0.00 60 1012.3
20260906064539 80 0 0.0 0.0 0.00 0.00 0.00 59 1012.5
20260906063041 80 0 0.0 0.0 0.00 0.00 0.00 58 1012.4
20260906061540 80 0 0.0 0.0 0.00 0.00 0.00 58 1012.4
20260906060045 81 0 0.0 0.0 0.00 0.00 0.00 57 1012.6
20260906054545 81 0 0.0 0.0 0.00 0.00 0.00 55 1012.5
20260906053050 82 0 0.0 0.0 0.00 0.00 0.00 55 1012.4
20260906051540 82 0 0.0 0.0 0.00 0.00 0.00 53 1012.6
20260906050045 83 0 0.0 0.0 0.00 0.00 0.00 52 1012.6
20260906044543 83 0 0.0 0.0 0.00 0.00 0.00 51 1012.5
20260906043041 84 0 0.0 0.0 0.00 0.00 0.00 50 1012.3
20260906041538 85 0 0.0 1.0 0.00 0.00 0.00 49 1012.3
20260906040043 86 0 0.0 3.0 0.00 0.00 0.00 48 1012.2
20260906034546 86 0 0.0 1.0 0.00 0.00 0.00 47 1012.4
20260906033038 87 0 0.0 2.0 0.00 0.00 0.00 45 1012.2
20260906031538 88 86 0.0 3.0 0.00 0.00 0.00 44 1012.5
20260906030039 88 0 1.0 6.0 0.00 0.00 0.00 43 1012.5
20260906024556 88 185 0.0 5.0 0.00 0.00 0.00 43 1012.4
20260906023042 89 125 0.0 4.0 0.00 0.00 0.00 42 1012.0
20260906021540 89 103 0.0 3.0 0.00 0.00 0.00 42 1011.8
20260906020049 90 0 0.0 6.0 0.00 0.00 0.00 41 1011.5
20260906014551 91 17 2.0 10.0 0.00 0.00 0.00 39 1011.4
20260906013044 92 40 1.0 6.0 0.00 0.00 0.00 37 1011.1
20260906011542 91 0 0.0 0.0 0.00 0.00 0.00 36 1010.4
20260906010042 92 0 0.0 1.0 0.00 0.00 0.00 34 1010.3
20260906004544 94 0 0.0 1.0 0.00 0.00 0.00 32 1010.3
20260906003050 94 0 0.0 2.0 0.00 0.00 0.00 31 1010.3
20260906001541 95 0 0.0 1.0 0.00 0.00 0.00 29 1010.4
20260906000042 95 0 0.0 2.0 0.00 0.00 0.00 29 1010.2
20260905234545 96 217 0.0 2.0 0.00 0.00 0.00 27 1010.2
20260905233040 96 221 0.0 2.0 0.00 0.00 0.00 27 1010.2
20260905231540 96 0 0.0 2.0 0.00 0.00 0.00 27 1010.2
20260905230039 96 0 0.0 3.0 0.00 0.00 0.00 27 1010.1
20260905224538 96 196 1.0 3.0 0.00 0.00 0.00 27 1010.2
20260905223039 96 207 1.0 3.0 0.00 0.00 0.00 27 1010.1
20260905221545 97 210 1.0 3.0 0.00 0.00 0.00 27 1010.3
20260905220044 97 0 1.0 4.0 0.00 0.00 0.00 28 1010.3
20260905214545 98 38 0.0 3.0 0.00 0.00 0.00 27 1010.6
20260905213046 97 229 1.0 3.0 0.00 0.00 0.00 27 1010.7
20260905211543 98 219 1.0 4.0 0.00 0.00 0.00 27 1010.9
20260905210045 99 193 0.0 4.0 0.00 0.00 0.00 27 1011.1
20260905204548 99 176 1.0 4.0 0.00 0.00 0.00 27 1011.2
20260905203044 99 158 1.0 5.0 0.00 0.00 0.00 27 1011.4
20260905201545 98 254 1.0 4.0 0.00 0.00 0.00 27 1011.6
20260905200052 96 225 1.0 3.0 0.00 0.00 0.00 28 1012.0
20260905194547 97 229 1.0 4.0 0.00 0.00 0.00 30 1012.2
20260905193052 97 174 1.0 5.0 0.00 0.00 0.00 30 1012.4
20260905191544 96 272 1.0 4.0 0.00 0.00 0.00 30 1012.5
20260905190043 96 224 1.0 7.0 0.00 0.00 0.00 31 1012.7
20260905184546 95 221 2.0 4.0 0.00 0.00 0.00 31 1013.1
20260905183042 95 243 1.0 6.0 0.00 0.00 0.00 34 1013.3
20260905181541 94 203 2.0 5.0 0.00 0.00 0.00 33 1013.6
20260905180044 95 207 2.0 5.0 0.00 0.00 0.00 34 1013.9
20260905174542 95 225 1.0 5.0 0.00 0.00 0.00 34 1014.0
20260905173039 93 213 0.0 4.0 0.00 0.00 0.00 36 1014.1
20260905171540 93 246 1.0 4.0 0.00 0.00 0.00 37 1014.3
20260905170047 91 199 1.0 4.0 0.00 0.00 0.00 39 1014.4
20260905164541 91 0 1.0 4.0 0.00 0.00 0.00 39 1014.5
20260905163041 91 0 0.0 2.0 0.00 0.00 0.00 39 1014.6
20260905161541 91 174 0.0 2.0 0.00 0.00 0.00 39 1014.5
20260905160046 90 0 0.0 3.0 0.00 0.00 0.00 40 1014.5
20260905154542 89 0 0.0 0.0 0.00 0.00 0.00 44 1014.5
20260905153039 88 0 0.0 1.0 0.00 0.00 0.00 46 1014.5
20260905151549 87 0 0.0 1.0 0.00 0.00 0.00 47 1014.5
20260905150044 86 0 0.0 2.0 0.00 0.00 0.00 49 1014.4
20260905144547 85 96 0.0 3.0 0.00 0.00 0.00 53 1014.4
20260905143049 84 0 0.0 1.0 0.00 0.00 0.00 54 1014.4
20260905141542 82 0 0.0 1.0 0.00 0.00 0.00 57 1014.3
20260905140041 81 0 0.0 0.0 0.00 0.00 0.00 60 1014.4
20260905134539 80 0 0.0 0.0 0.00 0.00 0.00 61 1014.2
20260905133036 79 0 0.0 1.0 0.00 0.00 0.00 64 1014.2
20260905131548 78 0 0.0 1.0 0.00 0.00 0.00 67 1014.0
20260905130040 77 0 0.0 0.0 0.00 0.00 0.00 70 1013.9
20260905124543 75 0 0.0 0.0 0.00 0.00 0.00 69 1013.9
20260905123041 75 0 0.0 0.0 0.00 0.00 0.00 68 1013.7
20260905121539 75 0 0.0 0.0 0.00 0.00 0.00 67 1013.6
20260905120042 75 0 0.0 0.0 0.00 0.00 0.00 67 1013.5
20260905114545 75 0 0.0 0.0 0.00 0.00 0.00 67 1013.5
20260905113041 75 0 0.0 0.0 0.00 0.00 0.00 66 1013.4
20260905111548 76 0 0.0 0.0 0.00 0.00 0.00 66 1013.3
20260905110039 76 0 0.0 0.0 0.00 0.00 0.00 66 1013.4